sat.trackr.live / text

‹ back to catalog

2023-069B

NORAD 56732 · 2023-069B

PAYLOAD ACTIVE UNKNOWN

§ Identity

Operator
Country
PRC
Launch date
2023-05-21
Launch site
JSC
Launch vehicle
Mass (kg)
RCS (m²)

External: N2YO · Heavens-Above · Gunter

§ Orbital elements

Epoch: 2026-05-25T04:54:36.122400Z

Period
95.34 min
Inclination
41.0075°
Eccentricity
0.0009436
Mean motion
15.10324843 rev/d
Perigee alt
528.7 km
Apogee alt
541.7 km
Semi-major
6,913.3 km
B*
1.9905e-4
RAAN
199.5404°
Arg perigee
88.5551°
Mean anomaly
271.6343°
Rev number
16,675

§ Raw data

2023-069B1 56732U 23069B   26145.20458475  .00003143  00000+0  19905-3 0  99932 56732  41.0075 199.5404 0009436  88.5551 271.6343 15.10324843166750

JSON: /api/v1/satellites/56732 · /tle

For live sub-satellite position, see the globe view (requires WebGL).

§ Visibility from observer

Set your observer location to see the next 7 days of passes ≥ 10°. The values pass through the URL so the page stays shareable.

No JS? Fill the form by hand. The geolocation button needs JavaScript.